Flag for U.S.A. Weather past 2 weeks in Pasadena, Texas, U.S.A.

Now
91 °F

Scattered clouds.


Feels Like: 103 °F
Forecast: 78 / 94 °F
Wind: 7 mph from South

Location: Houston / Ellington

Current Time: Aug 4, 2015 at 11:47:25 AM

Latest Report: Aug 4, 2015 at 10:50 AM


Visibility: 10 mi

Pressure: 30.00 "Hg

Humidity: 59%

Dew point: 75 °F

Location of PasadenaLocation

Historic Weather in Pasadena — Graph

°F

Pasadena temperature yesterday

Maximum temperature yesterday: 97 °F (at 1:50 PM)
Minimum temperature yesterday: 77 °F (at 4:50 AM)
Average temperature yesterday: 88 °F

Past Weeks' High & Low Weather Summary

 TemperatureHumidityPressure
High97 °F (Jul 23, 2:50 PM)94% (Jul 25, 11:50 PM)30.08 "Hg (Jul 25, 11:50 PM)
Low77 °F (Jul 23, 2:50 AM)30% (Aug 1, 5:50 PM)29.86 "Hg (Aug 2, 6:50 PM)
Average87 °F66%29.96 "Hg
* Reported Jul 20 9:50 AM — Aug 4 9:50 AM, Pasadena, Weather by CustomWeather, © 2015

Note: Actual official high and low records may vary slightly from our data, if they occured in-between our weather recording intervals... More about our weather records

Advertising

Pasadena weather history for previous 24 hours

 ConditionsComfort  
Time TempWeatherWind HumidityBarometerVisibility
9:50 AM
Tue, Aug 4
90 °FScattered clouds.3 mph63%29.99 "Hg10 mi
8:50 AM86 °FPassing clouds.3 mph70%30.00 "Hg10 mi
7:50 AM81 °FPassing clouds.No wind84%29.98 "Hg10 mi
6:50 AM79 °FPassing clouds.No wind79%29.98 "Hg10 mi
5:50 AM79 °FPassing clouds.No wind79%29.95 "Hg10 mi
4:50 AM79 °FPassing clouds.No wind79%29.96 "Hg10 mi
3:50 AM79 °FPassing clouds.No wind79%29.94 "Hg10 mi
2:50 AM81 °FPassing clouds.No wind74%29.94 "Hg10 mi
1:50 AM81 °FPassing clouds.3 mph74%29.93 "Hg10 mi
12:50 AM81 °FPassing clouds.No wind74%29.92 "Hg10 mi
11:50 PM
Mon, Aug 3
82 °FPassing clouds.3 mph74%29.92 "Hg10 mi
10:50 PM84 °FPassing clouds.3 mph79%29.91 "Hg10 mi
9:50 PM84 °FPassing clouds.5 mph79%29.91 "Hg10 mi
8:50 PM86 °FScattered clouds.8 mph75%29.90 "Hg10 mi
6:50 PM91 °FScattered clouds.14 mph56%29.89 "Hg10 mi
5:50 PM93 °FScattered clouds.13 mph53%29.89 "Hg10 mi
4:50 PM93 °FScattered clouds.8 mph39%29.89 "Hg10 mi
3:50 PM93 °FScattered clouds.12 mph39%29.89 "Hg10 mi
2:50 PM95 °FScattered clouds.8 mph41%29.91 "Hg10 mi
1:50 PM97 °FScattered clouds.5 mph39%29.92 "Hg10 mi
12:50 PM95 °FScattered clouds.No wind47%29.93 "Hg10 mi
11:50 AM95 °FScattered clouds.No wind47%29.94 "Hg10 mi
Weather by CustomWeather, © 2015

See weather overviewHow to use our weather pages